Pittsfield, IL

3:06 AM CST on January 23, 2018 (GMT -0600)
Pittsfield Penstone Municipal

Weather History for KPPQ - March, 2014

Change the Weather History Date:

Monday, March 31, 2014

  Actual Average (KUIN) Record (KUIN)
Temperature  
Mean Temperature 56 °F -  
Max Temperature 67 °F 57 °F 81 °F (1986)
Min Temperature 44 °F 37 °F 14 °F (1923)
Degree Days  
Heating Degree Days 10    
Growing Degree Days 6 (Base 50)    
Moisture  
Dew Point 40 °F    
Average Humidity 56    
Maximum Humidity 81    
Minimum Humidity 32    
Precipitation  
Precipitation 0.00 in - - ()
Sea Level Pressure  
Sea Level Pressure 29.85 in    
Wind  
Wind Speed 14 mph (SSE)    
Max Wind Speed 34 mph    
Max Gust Speed 45 mph    
Visibility 9 miles    
Events Rain    
Averages and records for this station are not official NWS values.
T = Trace of Precipitation, MM = Missing Value Source: NWS Daily Summary

Daily Weather History Graph

Daily Weather History Graph

Search for Another Location

Airport or City:

Trip Planner

Search our weather history database for the weather conditions in past years. The results will help you decide how hot, cold, wet, or windy it might be!

Date:

Astronomy

Mar. 31, 2014 Rise Set
Actual Time 6:48 AM CDT 7:26 PM CDT
Civil Twilight 6:21 AM CDT 7:53 PM CDT
Nautical Twilight 5:49 AM CDT 8:25 PM CDT
Astronomical Twilight 5:16 AM CDT 8:58 PM CDT
Moon 7:12 AM CDT (3/31) 8:44 PM CDT (3/31)
Length of Visible Light 13h 31m
Length of Day
12h 37m
New Moon, 1% of the Moon is Illuminated
Mar 31
New Moon
Apr 7
First Quarter
Apr 15
Full
Apr 22
Last Quarter
Apr 29
New

Hourly Weather History & Observations

Time (CDT) Temp. Windchill Dew Point Humidity Pressure Visibility Wind Dir Wind Speed Gust Speed Precip Events Conditions
12:15 AM 49.5 °F - 37.9 °F 65% 30.00 in 10.0 mi SSE 12.7 mph - N/A   Clear
12:35 AM 49.1 °F - 38.1 °F 66% 30.00 in 10.0 mi SE 10.4 mph - N/A   Clear
12:55 AM 48.6 °F - 37.8 °F 66% 30.00 in 10.0 mi SSE 10.4 mph - N/A   Clear
1:15 AM 48.6 °F - 37.8 °F 66% 30.00 in 10.0 mi SSE 10.4 mph - N/A   Clear
1:35 AM 48.7 °F - 37.6 °F 65% 30.01 in 10.0 mi SSE 8.1 mph - N/A   Clear
1:55 AM 48.4 °F - 37.6 °F 66% 30.00 in 10.0 mi SSE 9.2 mph - N/A   Clear
2:15 AM 47.1 °F - 37.4 °F 69% 30.00 in 10.0 mi SE 6.9 mph - N/A   Clear
2:35 AM 45.5 °F 40.8 °F 37.4 °F 73% 29.99 in 10.0 mi SE 9.2 mph - N/A   Clear
2:55 AM 45.9 °F 41.2 °F 37.8 °F 73% 29.98 in 10.0 mi SE 9.2 mph - N/A   Clear
3:15 AM 45.7 °F 42.0 °F 37.9 °F 74% 29.98 in 10.0 mi SSE 6.9 mph - N/A   Clear
3:35 AM 47.1 °F - 38.7 °F 72% 29.97 in 10.0 mi SSE 10.4 mph - N/A   Clear
3:55 AM 48.0 °F - 39.2 °F 72% 29.96 in 10.0 mi SE 11.5 mph - N/A   Clear
4:15 AM 46.4 °F 41.5 °F 38.8 °F 75% 29.96 in 10.0 mi SE 10.4 mph - N/A   Clear
4:35 AM 46.0 °F 41.0 °F 38.8 °F 76% 29.95 in 7.0 mi SE 10.4 mph - N/A   Clear
4:55 AM 45.9 °F 40.8 °F 39.2 °F 78% 29.96 in 7.0 mi SE 10.4 mph - N/A   Clear
5:15 AM 45.7 °F 40.2 °F 39.2 °F 78% 29.95 in 7.0 mi SE 11.5 mph - N/A   Clear
5:35 AM 45.5 °F 40.3 °F 39.2 °F 79% 29.95 in 7.0 mi SE 10.4 mph - N/A   Clear
5:55 AM 45.3 °F 40.1 °F 39.2 °F 79% 29.95 in 5.0 mi SE 10.4 mph - N/A   Haze
6:15 AM 44.8 °F 39.9 °F 39.2 °F 81% 29.94 in 5.0 mi SE 9.2 mph - N/A   Haze
6:35 AM 45.0 °F 39.7 °F 39.4 °F 81% 29.93 in 5.0 mi SE 10.4 mph - N/A   Haze
6:55 AM 45.5 °F 39.2 °F 39.6 °F 80% 29.93 in 7.0 mi SE 13.8 mph - N/A   Clear
7:15 AM 46.4 °F 40.1 °F 40.1 °F 79% 29.93 in 7.0 mi SSE 15.0 mph 20.7 mph N/A   Clear
7:35 AM 46.8 °F - 40.1 °F 78% 29.92 in 7.0 mi SE 16.1 mph 19.6 mph N/A   Clear
7:55 AM 46.9 °F - 40.1 °F 77% 29.91 in 7.0 mi SE 13.8 mph - N/A   Clear
8:15 AM 48.4 °F - 40.6 °F 75% 29.91 in 10.0 mi SSE 16.1 mph - N/A   Clear
8:35 AM 50.7 °F - 41.2 °F 70% 29.90 in 10.0 mi SSE 18.4 mph 21.9 mph N/A   Clear
8:55 AM 53.2 °F - 41.7 °F 65% 29.90 in 10.0 mi SSE 15.0 mph - N/A   Clear
9:15 AM 55.4 °F - 41.7 °F 60% 29.91 in 10.0 mi SSE 15.0 mph 20.7 mph N/A   Clear
9:35 AM 56.3 °F - 41.4 °F 57% 29.91 in 10.0 mi SSE 16.1 mph 20.7 mph N/A   Clear
9:55 AM 59.0 °F - 42.6 °F 55% 29.91 in 10.0 mi SSE 13.8 mph 19.6 mph N/A   Clear
10:09 AM 59.5 °F - 41.7 °F 52% 29.91 in 10.0 mi South 21.9 mph 26.5 mph N/A   Clear
10:35 AM 59.0 °F - 41.2 °F 52% 29.90 in 10.0 mi SSE 21.9 mph 36.8 mph N/A   Scattered Clouds
10:55 AM 60.6 °F - 42.1 °F 50% 29.88 in 10.0 mi SSE 24.2 mph 34.5 mph N/A   Clear
11:15 AM 61.5 °F - 41.5 °F 48% 29.87 in 10.0 mi SSE 19.6 mph 31.1 mph N/A   Scattered Clouds
11:35 AM 61.2 °F - 41.5 °F 48% 29.88 in 10.0 mi South 17.3 mph 20.7 mph N/A   Mostly Cloudy
11:55 AM 60.4 °F - 40.8 °F 48% 29.89 in 10.0 mi South 11.5 mph 17.3 mph N/A   Light Drizzle
12:15 PM 59.5 °F - 42.1 °F 52% 29.87 in 10.0 mi SSE 17.3 mph - N/A   Mostly Cloudy
12:35 PM 59.7 °F - 42.1 °F 52% 29.85 in 10.0 mi SSE 16.1 mph 23.0 mph N/A   Scattered Clouds
12:55 PM 60.1 °F - 41.9 °F 51% 29.84 in 10.0 mi SSE 15.0 mph - N/A   Mostly Cloudy
1:15 PM 60.8 °F - 41.9 °F 50% 29.83 in 10.0 mi SSE 17.3 mph - N/A   Scattered Clouds
1:35 PM 61.2 °F - 41.9 °F 49% 29.78 in 10.0 mi SE 25.3 mph 33.4 mph N/A   Clear
1:55 PM 59.5 °F - 43.2 °F 55% 29.69 in 7.0 mi SSE 34.5 mph 44.9 mph N/A Rain Rain
2:15 PM 62.2 °F - 43.2 °F 50% 29.76 in 10.0 mi SSE 21.9 mph 32.2 mph N/A   Scattered Clouds
2:35 PM 64.4 °F - 41.5 °F 43% 29.78 in 10.0 mi SSE 17.3 mph 25.3 mph N/A   Clear
2:55 PM 65.5 °F - 38.7 °F 37% 29.77 in 10.0 mi South 23.0 mph 26.5 mph N/A   Clear
3:15 PM 66.6 °F - 37.6 °F 34% 29.75 in 10.0 mi SSE 23.0 mph 26.5 mph N/A   Scattered Clouds
3:35 PM 65.8 °F - 37.8 °F 36% 29.75 in 10.0 mi SSE 13.8 mph 27.6 mph N/A   Mostly Cloudy
3:55 PM 65.7 °F - 40.3 °F 39% 29.73 in 10.0 mi SSE 16.1 mph 26.5 mph N/A   Scattered Clouds
4:15 PM 66.4 °F - 37.0 °F 34% 29.74 in 10.0 mi South 24.2 mph 35.7 mph N/A   Clear
4:35 PM 67.3 °F - 37.6 °F 34% 29.74 in 7.0 mi South 25.3 mph 33.4 mph N/A   Clear
4:55 PM 67.3 °F - 38.3 °F 35% 29.72 in 7.0 mi SSE 24.2 mph 33.4 mph N/A   Clear
5:15 PM 67.3 °F - 37.8 °F 34% 29.72 in 10.0 mi SSE 23.0 mph 31.1 mph N/A   Clear
5:35 PM 66.7 °F - 37.4 °F 34% 29.71 in 10.0 mi SSE 18.4 mph 23.0 mph N/A   Scattered Clouds
5:55 PM 66.6 °F - 36.7 °F 33% 29.72 in 10.0 mi South 16.1 mph 26.5 mph N/A   Mostly Cloudy
6:15 PM 67.1 °F - 36.7 °F 33% 29.73 in 10.0 mi South 13.8 mph 21.9 mph N/A   Overcast
6:35 PM 67.6 °F - 36.7 °F 32% 29.73 in 10.0 mi South 13.8 mph 23.0 mph N/A   Overcast
6:55 PM 67.1 °F - 36.5 °F 32% 29.73 in 10.0 mi South 15.0 mph 20.7 mph N/A   Mostly Cloudy
7:15 PM 66.7 °F - 37.0 °F 33% 29.73 in 10.0 mi South 16.1 mph 23.0 mph N/A   Scattered Clouds
7:35 PM 65.5 °F - 40.1 °F 39% 29.72 in 10.0 mi South 20.7 mph 31.1 mph N/A   Clear
7:55 PM 64.6 °F - 41.0 °F 42% 29.74 in 10.0 mi SSW 18.4 mph 26.5 mph N/A   Clear
8:15 PM 63.9 °F - 41.4 °F 44% 29.74 in 10.0 mi South 20.7 mph 31.1 mph N/A   Clear
8:35 PM 63.3 °F - 41.2 °F 44% 29.75 in 10.0 mi South 20.7 mph 31.1 mph N/A   Clear
8:55 PM 62.8 °F - 41.2 °F 45% 29.75 in 10.0 mi SSW 23.0 mph 32.2 mph N/A   Clear
9:15 PM 62.2 °F - 42.3 °F 48% 29.76 in 10.0 mi SSW 21.9 mph 33.4 mph N/A   Clear
9:35 PM 61.5 °F - 42.4 °F 50% 29.76 in 10.0 mi South 18.4 mph 28.8 mph N/A   Clear
9:55 PM 60.8 °F - 42.8 °F 52% 29.76 in 10.0 mi SSW 20.7 mph 27.6 mph N/A   Clear
10:15 PM 60.6 °F - 42.8 °F 52% 29.77 in 10.0 mi SSW 17.3 mph 29.9 mph N/A   Clear
10:35 PM 60.1 °F - 43.2 °F 54% 29.78 in 10.0 mi SSW 16.1 mph 27.6 mph N/A   Clear
10:55 PM 59.7 °F - 43.7 °F 55% 29.78 in 10.0 mi SSW 23.0 mph 26.5 mph N/A   Clear
11:15 PM 59.9 °F - 44.6 °F 57% 29.79 in 10.0 mi SSW 21.9 mph 29.9 mph N/A   Clear
11:35 PM 59.4 °F - 44.8 °F 58% 29.80 in 10.0 mi SW 19.6 mph 31.1 mph N/A   Clear
11:55 PM 59.0 °F - 45.1 °F 60% 29.81 in 10.0 mi SW 11.5 mph 20.7 mph N/A   Clear